,,Stat5,,Stat1,,Stat2,,Stat3,,Stat4,,Wind1,,Wind1,
time,status,PA1M_AVG,status,PR1M_SUM,status,RH1M_AVG,status,SR1M_AVG,status,TA1M_AVG,status,W1dAve1m,status,W1sAve1m,
2000-04-25, 00:00:00,VALID,917.461,VALID,0,VALID,90.5624,VALID,-0.0679233,VALID,20.488,VALID,119,VALID,0.207131,
2000-04-25, 00:01:00,VALID,917.45,VALID,0,VALID,90.6323,VALID,-0.0679233,VALID,20.4915,VALID,119,VALID,0.00401182,
2000-04-25, 00:02:00,VALID,917.444,VALID,0,VALID,89.554,VALID,-0.0509425,VALID,20.4912,VALID,119,VALID,0,
2000-04-25, 00:03:00,VALID,917.445,VALID,0,VALID,89.5769,VALID,-0.0679233,VALID,20.489,VALID,119,VALID,0,
2000-04-25, 00:04:00,VALID,917.433,VALID,0,VALID,89.535,VALID,-0.0339617,VALID,20.4657,VALID,119,VALID,0,
2000-04-25, 00:05:00,VALID,917.43,VALID,0,VALID,90.3005,VALID,-0.0509425,VALID,20.4694,VALID,118,VALID,0,
2000-04-25, 00:06:00,VALID,917.409,VALID,0,VALID,91.0113,VALID,-0.0679233,VALID,20.4207,VALID,101,VALID,0.464949,
2000-04-25, 00:07:00,VALID,917.387,VALID,0,VALID,90.7099,VALID,0.0169808,VALID,20.3645,VALID,92,VALID,0.635268,
2000-04-25, 00:08:00,VALID,917.341,VALID,0,VALID,90.598,VALID,0.0679233,VALID,20.2983,VALID,103,VALID,0.563702,
2000-04-25, 00:09:00,VALID,917.3,VALID,0,VALID,90.6527,VALID,0.0679233,VALID,20.2608,VALID,110,VALID,0.474905,
2000-04-25, 00:10:00,VALID,917.265,VALID,0,VALID,91.0024,VALID,0.0509425,VALID,20.228,VALID,120,VALID,0.0689732,
2000-04-25, 00:11:00,VALID,917.243,VALID,0,VALID,91.0456,VALID,0.0339617,VALID,20.2119,VALID,120,VALID,0.00211149,
2000-04-25, 00:12:00,VALID,917.213,VALID,0,VALID,90.3424,VALID,0.0169808,VALID,20.2091,VALID,114,VALID,0.0882601,
2000-04-25, 00:13:00,VALID,917.213,VALID,0,VALID,89.994,VALID,0,VALID,20.2086,VALID,110,VALID,0.0707237,
2000-04-25, 00:14:00,VALID,917.181,VALID,0,VALID,90.6044,VALID,0.0339617,VALID,20.2412,VALID,134,VALID,0.527995,
2000-04-25, 00:15:00,VALID,917.186,VALID,0,VALID,90.4874,VALID,0.0169808,VALID,20.2447,VALID,129,VALID,0.329564,
2000-04-25, 00:16:00,VALID,917.18,VALID,0,VALID,90.4416,VALID,0.0339617,VALID,20.2539,VALID,129,VALID,0.00929054,
2000-04-25, 00:17:00,VALID,917.192,VALID,0,VALID,90.4937,VALID,0.0849042,VALID,20.2668,VALID,129,VALID,0.0264246,
2000-04-25, 00:18:00,VALID,917.207,VALID,0,VALID,91.1791,VALID,0.0169808,VALID,20.2504,VALID,129,VALID,0.162007,
2000-04-25, 00:19:00,VALID,917.187,VALID,0,VALID,91.2796,VALID,0.0509425,VALID,20.2084,VALID,122,VALID,0.497255,
2000-04-25, 00:20:00,VALID,917.183,VALID,0,VALID,90.9642,VALID,0.0849042,VALID,20.1604,VALID,104,VALID,0.649671,
2000-04-25, 00:21:00,VALID,917.169,VALID,0,VALID,91.3584,VALID,0.0339617,VALID,20.0859,VALID,108,VALID,0.475507,
2000-04-25, 00:22:00,VALID,917.174,VALID,0,VALID,91.9701,VALID,0.0509425,VALID,19.9919,VALID,105,VALID,0.475893,
2000-04-25, 00:23:00,VALID,917.178,VALID,0,VALID,92.199,VALID,0.0339617,VALID,19.9112,VALID,101,VALID,0.490184,
2000-04-25, 00:24:00,VALID,917.169,VALID,0,VALID,92.3401,VALID,0.101885,VALID,19.8794,VALID,101,VALID,0.541903,
2000-04-25, 00:25:00,VALID,917.151,VALID,0,VALID,92.3427,VALID,0.0509425,VALID,19.8406,VALID,93,VALID,0.838839,
2000-04-25, 00:26:00,VALID,917.113,VALID,0,VALID,92.3147,VALID,0.0679233,VALID,19.8438,VALID,93,VALID,0.93011,
2000-04-25, 00:27:00,VALID,917.092,VALID,0,VALID,92.3299,VALID,0.0509425,VALID,19.8662,VALID,99,VALID,0.801731,
2000-04-25, 00:28:00,VALID,917.068,VALID,0,VALID,92.3058,VALID,0.0679233,VALID,19.8824,VALID,99,VALID,0.504729,
2000-04-25, 00:29:00,VALID,917.049,VALID,0,VALID,92.4825,VALID,0.0169808,VALID,19.8858,VALID,96,VALID,0.726345,
2000-04-25, 00:30:00,VALID,917.032,VALID,0,VALID,92.5995,VALID,0.0679233,VALID,19.8302,VALID,86,VALID,0.79523,
2000-04-25, 00:31:00,VALID,917.015,VALID,0,VALID,92.6593,VALID,0.0849042,VALID,19.7954,VALID,84,VALID,0.86402,
2000-04-25, 00:32:00,VALID,916.992,VALID,0,VALID,92.5919,VALID,0.0509425,VALID,19.7989,VALID,78,VALID,0.793658,
2000-04-25, 00:33:00,VALID,916.973,VALID,0,VALID,92.3821,VALID,0,VALID,19.8207,VALID,74,VALID,0.736225,
2000-04-25, 00:34:00,VALID,916.956,VALID,0,VALID,91.9802,VALID,0.0339617,VALID,19.9052,VALID,65,VALID,0.713682,
2000-04-25, 00:35:00,VALID,916.929,VALID,0,VALID,91.7717,VALID,0.0169808,VALID,19.9604,VALID,90,VALID,0.282895,
2000-04-25, 00:36:00,VALID,916.914,VALID,0,VALID,91.6013,VALID,0.0679233,VALID,19.9959,VALID,96,VALID,0.0158361,
2000-04-25, 00:37:00,VALID,916.889,VALID,0,VALID,91.5543,VALID,-0.0509425,VALID,20.0091,VALID,53,VALID,0.162054,
2000-04-25, 00:38:00,VALID,916.864,VALID,0,VALID,91.5988,VALID,-0.0849042,VALID,20.0397,VALID,53,VALID,0.104367,
2000-04-25, 00:39:00,VALID,916.847,VALID,0,VALID,91.4296,VALID,-0.0679233,VALID,20.0424,VALID,53,VALID,0.078125,
2000-04-25, 00:40:00,VALID,916.826,VALID,0,VALID,91.3406,VALID,-0.0509425,VALID,20.0623,VALID,53,VALID,0.0140625,
2000-04-25, 00:41:00,VALID,916.802,VALID,0,VALID,91.4538,VALID,-0.0849042,VALID,20.0588,VALID,53,VALID,0,
2000-04-25, 00:42:00,VALID,916.768,VALID,0,VALID,91.6356,VALID,-0.0679233,VALID,20.072,VALID,53,VALID,0,
2000-04-25, 00:43:00,VALID,916.731,VALID,0,VALID,91.7539,VALID,-0.101885,VALID,20.0556,VALID,53,VALID,0,
2000-04-25, 00:44:00,VALID,916.686,VALID,0,VALID,91.6382,VALID,-0.0679233,VALID,20.0521,VALID,53,VALID,0,
2000-04-25, 00:45:00,VALID,916.635,VALID,0,VALID,91.4093,VALID,-0.0509425,VALID,20.0623,VALID,53,VALID,0,
2000-04-25, 00:46:00,VALID,916.587,VALID,0,VALID,91.4195,VALID,-0.0509425,VALID,20.0489,VALID,53,VALID,0,
2000-04-25, 00:47:00,VALID,916.558,VALID,0,VALID,91.5848,VALID,-0.0509425,VALID,20.0618,VALID,53,VALID,0,
2000-04-25, 00:48:00,VALID,916.547,VALID,0,VALID,91.848,VALID,-0.0679233,VALID,20.0387,VALID,58,VALID,0,
2000-04-25, 00:49:00,VALID,916.521,VALID,0,VALID,92.2295,VALID,-0.0679233,VALID,20.0138,VALID,82,VALID,0,
2000-04-25, 00:50:00,VALID,916.511,VALID,0,VALID,92.2575,VALID,-0.0339617,VALID,19.9584,VALID,95,VALID,0,
2000-04-25, 00:51:00,VALID,916.483,VALID,0,VALID,92.4151,VALID,-0.0849042,VALID,19.865,VALID,101,VALID,0,
2000-04-25, 00:52:00,VALID,916.47,VALID,0,VALID,92.7101,VALID,0.0339617,VALID,19.8023,VALID,103,VALID,0,
2000-04-25, 00:53:00,VALID,916.45,VALID,0,VALID,92.8449,VALID,0.0679233,VALID,19.8078,VALID,93,VALID,0,
2000-04-25, 00:54:00,VALID,916.428,VALID,0,VALID,92.3732,VALID,0.101885,VALID,19.8697,VALID,98,VALID,0,
2000-04-25, 00:55:00,VALID,916.43,VALID,0,VALID,92.3083,VALID,0.101885,VALID,19.8501,VALID,98,VALID,0,
2000-04-25, 00:56:00,VALID,916.423,VALID,0,VALID,92.4978,VALID,0.101885,VALID,19.8274,VALID,98,VALID,0,
2000-04-25, 00:57:00,VALID,916.43,VALID,0,VALID,92.5143,VALID,0.0679233,VALID,19.7986,VALID,98,VALID,0,
2000-04-25, 00:58:00,VALID,916.412,VALID,0,VALID,92.5308,VALID,0.0509425,VALID,19.7827,VALID,98,VALID,0,
2000-04-25, 00:59:00,VALID,916.383,VALID,0,VALID,92.5817,VALID,0.0169808,VALID,19.744,VALID,98,VALID,0,
2000-04-25, 01:00:00,VALID,916.368,VALID,0,VALID,92.8093,VALID,0.0509425,VALID,19.6955,VALID,102,VALID,0,
2000-04-25, 01:01:00,VALID,916.328,VALID,0,VALID,92.9467,VALID,0.101885,VALID,19.6533,VALID,110,VALID,0,
2000-04-25, 01:02:00,VALID,916.286,VALID,0,VALID,93.2646,VALID,0.0169808,VALID,19.5693,VALID,107,VALID,0.683364,
2000-04-25, 01:03:00,VALID,916.27,VALID,0,VALID,93.3727,VALID,0.0169808,VALID,19.5146,VALID,89,VALID,0.830798,
2000-04-25, 01:04:00,VALID,916.248,VALID,0,VALID,93.8876,VALID,0.0509425,VALID,19.4694,VALID,87,VALID,0.589527,
2000-04-25, 01:05:00,VALID,916.228,VALID,0,VALID,94.3098,VALID,0.0339617,VALID,19.46,VALID,67,VALID,0.286801,
2000-04-25, 01:06:00,VALID,916.216,VALID,0,VALID,94.3836,VALID,0.0509425,VALID,19.4692,VALID,67,VALID,0.082348,
2000-04-25, 01:07:00,VALID,916.195,VALID,0,VALID,94.4026,VALID,0,VALID,19.4873,VALID,63,VALID,0,
2000-04-25, 01:08:00,VALID,916.176,VALID,0,VALID,94.4764,VALID,-0.118866,VALID,19.4945,VALID,63,VALID,0,
2000-04-25, 01:09:00,VALID,916.161,VALID,0,VALID,94.6239,VALID,-0.0849042,VALID,19.5138,VALID,63,VALID,0,
2000-04-25, 01:10:00,VALID,916.144,VALID,0,VALID,94.6036,VALID,-0.0849042,VALID,19.5367,VALID,71,VALID,0,
2000-04-25, 01:11:00,VALID,916.144,VALID,0,VALID,94.2729,VALID,-0.101885,VALID,19.5265,VALID,72,VALID,0,
2000-04-25, 01:12:00,VALID,916.147,VALID,0,VALID,94.1165,VALID,-0.101885,VALID,19.5268,VALID,79,VALID,0,
2000-04-25, 01:13:00,VALID,916.155,VALID,0,VALID,93.866,VALID,-0.101885,VALID,19.5146,VALID,84,VALID,0,
2000-04-25, 01:14:00,VALID,916.158,VALID,0,VALID,93.9678,VALID,-0.101885,VALID,19.4428,VALID,87,VALID,0,
2000-04-25, 01:15:00,VALID,916.164,VALID,0,VALID,94.7498,VALID,-0.0679233,VALID,19.4234,VALID,89,VALID,1.05016,
2000-04-25, 01:16:00,VALID,916.164,VALID,0,VALID,95.0563,VALID,-0.101885,VALID,19.4589,VALID,94,VALID,1.19531,
2000-04-25, 01:17:00,VALID,916.179,VALID,0,VALID,94.7956,VALID,-0.0849042,VALID,19.4786,VALID,92,VALID,1.25643,
2000-04-25, 01:18:00,VALID,916.182,VALID,0,VALID,94.6659,VALID,-0.118866,VALID,19.4853,VALID,94,VALID,1.21094,
2000-04-25, 01:19:00,VALID,916.206,VALID,0,VALID,94.6824,VALID,-0.101885,VALID,19.5014,VALID,90,VALID,1.26415,
2000-04-25, 01:20:00,VALID,916.227,VALID,0,VALID,94.5629,VALID,-0.101885,VALID,19.5176,VALID,90,VALID,1.0699,
2000-04-25, 01:21:00,VALID,916.239,VALID,0,VALID,94.5832,VALID,-0.101885,VALID,19.5402,VALID,90,VALID,1.30828,
2000-04-25, 01:22:00,VALID,916.24,VALID,0,VALID,94.5107,VALID,-0.0169808,VALID,19.5914,VALID,87,VALID,1.30357,
2000-04-25, 01:23:00,VALID,916.249,VALID,0,VALID,94.4294,VALID,0.0169808,VALID,19.6128,VALID,89,VALID,1.04427,
2000-04-25, 01:24:00,VALID,916.259,VALID,0,VALID,94.4599,VALID,0,VALID,19.6679,VALID,77,VALID,0.857955,
2000-04-25, 01:25:00,VALID,916.256,VALID,0,VALID,94.4344,VALID,-0.0169808,VALID,19.7169,VALID,79,VALID,1.05112,
2000-04-25, 01:26:00,VALID,916.248,VALID,0,VALID,94.2437,VALID,0,VALID,19.7939,VALID,85,VALID,1.17504,
2000-04-25, 01:27:00,VALID,916.226,VALID,0,VALID,94.0021,VALID,0,VALID,19.8553,VALID,84,VALID,0.998311,
2000-04-25, 01:28:00,VALID,916.208,VALID,0,VALID,93.7808,VALID,0.0169808,VALID,19.897,VALID,83,VALID,0.780016,
2000-04-25, 01:29:00,VALID,916.209,VALID,0,VALID,93.7923,VALID,0,VALID,19.9423,VALID,86,VALID,0.851128,
2000-04-25, 01:30:00,VALID,916.198,VALID,0,VALID,93.6054,VALID,0.0169808,VALID,19.9775,VALID,87,VALID,0.819285,
2000-04-25, 01:31:00,VALID,916.206,VALID,0,VALID,93.5074,VALID,0,VALID,20.0069,VALID,80,VALID,0.959882,
2000-04-25, 01:32:00,VALID,916.217,VALID,0,VALID,93.3587,VALID,0,VALID,20.0258,VALID,79,VALID,1.04596,
2000-04-25, 01:33:00,VALID,916.223,VALID,0,VALID,93.1641,VALID,0,VALID,20.0779,VALID,82,VALID,1.2942,
2000-04-25, 01:34:00,VALID,916.235,VALID,0,VALID,93.0853,VALID,0.0169808,VALID,20.1234,VALID,86,VALID,1.13704,
2000-04-25, 01:35:00,VALID,916.238,VALID,0,VALID,93.009,VALID,0,VALID,20.1331,VALID,90,VALID,1.1727,
2000-04-25, 01:36:00,VALID,916.227,VALID,0,VALID,93.0268,VALID,0,VALID,20.113,VALID,88,VALID,1.46981,
2000-04-25, 01:37:00,VALID,916.217,VALID,0,VALID,93.0751,VALID,0,VALID,20.1167,VALID,93,VALID,1.48951,
2000-04-25, 01:38:00,VALID,916.215,VALID,0,VALID,93.1158,VALID,0.0169808,VALID,20.107,VALID,93,VALID,1.34716,
2000-04-25, 01:39:00,VALID,916.199,VALID,0,VALID,93.1997,VALID,0,VALID,20.1008,VALID,87,VALID,1.59446,
2000-04-25, 01:40:00,VALID,916.192,VALID,0,VALID,93.2391,VALID,0,VALID,20.0871,VALID,88,VALID,1.46317,
2000-04-25, 01:41:00,VALID,916.191,VALID,0,VALID,93.2773,VALID,-0.0169808,VALID,20.0779,VALID,88,VALID,1.66807,
2000-04-25, 01:42:00,VALID,916.172,VALID,0,VALID,93.3498,VALID,0,VALID,20.0777,VALID,93,VALID,1.61486,
2000-04-25, 01:43:00,VALID,916.172,VALID,0,VALID,93.3968,VALID,0,VALID,20.0742,VALID,83,VALID,1.68277,
2000-04-25, 01:44:00,VALID,916.155,VALID,0,VALID,93.3994,VALID,0.0169808,VALID,20.0802,VALID,82,VALID,1.65408,
2000-04-25, 01:45:00,VALID,916.161,VALID,0,VALID,93.4502,VALID,0,VALID,20.0737,VALID,81,VALID,1.44264,
2000-04-25, 01:46:00,VALID,916.157,VALID,0,VALID,93.337,VALID,0.0339617,VALID,20.0966,VALID,81,VALID,1.16132,
2000-04-25, 01:47:00,VALID,916.157,VALID,0,VALID,93.2824,VALID,0.0169808,VALID,20.1135,VALID,95,VALID,1.04963,
2000-04-25, 01:48:00,VALID,916.156,VALID,0,VALID,93.2964,VALID,-0.0169808,VALID,20.1035,VALID,90,VALID,0.973479,
2000-04-25, 01:49:00,VALID,916.158,VALID,0,VALID,93.2989,VALID,-0.0169808,VALID,20.1065,VALID,85,VALID,1.01267,
2000-04-25, 01:50:00,VALID,916.178,VALID,0,VALID,93.2811,VALID,0.0169808,VALID,20.1073,VALID,74,VALID,0.834293,
2000-04-25, 01:51:00,VALID,916.159,VALID,0,VALID,93.3472,VALID,0,VALID,20.075,VALID,85,VALID,0.495566,
2000-04-25, 01:52:00,VALID,916.154,VALID,0,VALID,93.4019,VALID,0.0169808,VALID,20.0648,VALID,93,VALID,0.497321,
2000-04-25, 01:53:00,VALID,916.12,VALID,0,VALID,93.4019,VALID,0,VALID,20.0782,VALID,118,VALID,0.55008,
2000-04-25, 01:54:00,VALID,916.091,VALID,0,VALID,93.3968,VALID,0,VALID,20.0615,VALID,118,VALID,0.102746,
2000-04-25, 01:55:00,VALID,916.082,VALID,0,VALID,93.3994,VALID,0,VALID,20.068,VALID,105,VALID,0.0359375,
2000-04-25, 01:56:00,VALID,916.062,VALID,0,VALID,93.4566,VALID,0,VALID,20.0586,VALID,46,VALID,0,
2000-04-25, 01:57:00,VALID,916.06,VALID,0,VALID,93.5812,VALID,0,VALID,20.0392,VALID,60,VALID,0.107897,
2000-04-25, 01:58:00,VALID,916.065,VALID,0,VALID,93.6066,VALID,0.0169808,VALID,20.0322,VALID,79,VALID,1.02097,
2000-04-25, 01:59:00,VALID,916.054,VALID,0,VALID,93.6219,VALID,0.0169808,VALID,20.026,VALID,83,VALID,1.29601,
2000-04-25, 02:00:00,VALID,916.049,VALID,0,VALID,93.5723,VALID,0.0339617,VALID,20.0195,VALID,86,VALID,1.38261,
2000-04-25, 02:01:00,VALID,916.039,VALID,0,VALID,93.6422,VALID,0,VALID,19.9775,VALID,77,VALID,0.984797,
2000-04-25, 02:02:00,VALID,916.029,VALID,0,VALID,94.0352,VALID,0,VALID,19.9681,VALID,48,VALID,1.04642,
2000-04-25, 02:03:00,VALID,915.988,VALID,0,VALID,94.0886,VALID,0.0169808,VALID,19.9673,VALID,98,VALID,0.378701,
2000-04-25, 02:04:00,VALID,915.926,VALID,0,VALID,94.1051,VALID,0.0339617,VALID,19.9775,VALID,101,VALID,0.0232264,
2000-04-25, 02:05:00,VALID,915.875,VALID,0,VALID,94.1153,VALID,0.0339617,VALID,19.981,VALID,157,VALID,0.10074,
2000-04-25, 02:06:00,VALID,915.824,VALID,0,VALID,93.9945,VALID,0.0339617,VALID,19.9609,VALID,257,VALID,0.491554,
2000-04-25, 02:07:00,VALID,915.773,VALID,0,VALID,93.9538,VALID,0.0169808,VALID,19.9455,VALID,258,VALID,0.451786,
2000-04-25, 02:08:00,VALID,915.756,VALID,0,VALID,94.0542,VALID,0.0169808,VALID,19.8998,VALID,277,VALID,0.306691,
2000-04-25, 02:09:00,VALID,915.746,VALID,0,VALID,94.0364,VALID,-0.0169808,VALID,19.8873,VALID,274,VALID,0.257576,
2000-04-25, 02:10:00,VALID,915.744,VALID,0,VALID,93.9805,VALID,0,VALID,19.8511,VALID,262,VALID,0.188616,
2000-04-25, 02:11:00,VALID,915.751,VALID,0,VALID,93.6867,VALID,0.0169808,VALID,19.7961,VALID,217,VALID,0.0956503,
2000-04-25, 02:12:00,VALID,915.76,VALID,0,VALID,93.6206,VALID,0.0169808,VALID,19.7288,VALID,187,VALID,0.207137,
2000-04-25, 02:13:00,VALID,915.755,VALID,0,VALID,93.9805,VALID,0,VALID,19.6478,VALID,163,VALID,0.593544,
2000-04-25, 02:14:00,VALID,915.752,VALID,0,VALID,94.6735,VALID,0,VALID,19.5641,VALID,163,VALID,0.528429,
2000-04-25, 02:15:00,VALID,915.73,VALID,0,VALID,95.0181,VALID,0,VALID,19.4801,VALID,171,VALID,0.285362,
2000-04-25, 02:16:00,VALID,915.732,VALID,0,VALID,95.191,VALID,0.0339617,VALID,19.4058,VALID,179,VALID,0,
2000-04-25, 02:17:00,VALID,915.71,VALID,0,VALID,95.3614,VALID,0,VALID,19.3543,VALID,179,VALID,0,
2000-04-25, 02:18:00,VALID,915.71,VALID,0,VALID,95.4746,VALID,0,VALID,19.3158,VALID,179,VALID,0,
2000-04-25, 02:19:00,VALID,915.698,VALID,0,VALID,95.6539,VALID,0,VALID,19.2704,VALID,131,VALID,0.235853,
2000-04-25, 02:20:00,VALID,915.686,VALID,0,VALID,95.79,VALID,0,VALID,19.2413,VALID,122,VALID,0.508429,
2000-04-25, 02:21:00,VALID,915.661,VALID,0,VALID,95.9756,VALID,0,VALID,19.2053,VALID,123,VALID,0.488809,
2000-04-25, 02:22:00,VALID,915.662,VALID,0,VALID,95.9298,VALID,-0.0849042,VALID,19.1747,VALID,126,VALID,0.479464,
2000-04-25, 02:23:00,VALID,915.653,VALID,0,VALID,95.9108,VALID,-0.101885,VALID,19.1327,VALID,126,VALID,0.430288,
2000-04-25, 02:24:00,VALID,915.655,VALID,0,VALID,95.8141,VALID,-0.0509425,VALID,19.1009,VALID,119,VALID,0.543087,
2000-04-25, 02:25:00,VALID,915.635,VALID,0,VALID,95.7493,VALID,-0.101885,VALID,19.0425,VALID,107,VALID,0.474777,
2000-04-25, 02:26:00,VALID,915.625,VALID,0,VALID,96.1804,VALID,-0.101885,VALID,19.004,VALID,100,VALID,0.496622,
2000-04-25, 02:27:00,VALID,915.602,VALID,0,VALID,96.5364,VALID,-0.101885,VALID,18.991,VALID,107,VALID,0.364654,
2000-04-25, 02:28:00,VALID,915.561,VALID,0,VALID,97.0387,VALID,-0.101885,VALID,19.007,VALID,108,VALID,0.0460526,
2000-04-25, 02:29:00,VALID,915.533,VALID,0,VALID,97.2243,VALID,-0.118866,VALID,19.0363,VALID,117,VALID,0,
2000-04-25, 02:30:00,VALID,915.5,VALID,0,VALID,97.0425,VALID,-0.0849042,VALID,19.0169,VALID,194,VALID,0.253084,
2000-04-25, 02:31:00,VALID,915.476,VALID,0,VALID,97.2498,VALID,0.0169808,VALID,19.0254,VALID,217,VALID,0.446157,
2000-04-25, 02:32:00,VALID,915.477,VALID,0,VALID,97.2002,VALID,0,VALID,19.0058,VALID,221,VALID,0.544807,
2000-04-25, 02:33:00,VALID,915.46,VALID,0,VALID,96.9764,VALID,0,VALID,18.9839,VALID,223,VALID,0.58676,
2000-04-25, 02:34:00,VALID,915.477,VALID,0,VALID,97.0069,VALID,0,VALID,18.9479,VALID,222,VALID,0.522804,
2000-04-25, 02:35:00,VALID,915.508,VALID,0,VALID,96.9459,VALID,0,VALID,18.9089,VALID,214,VALID,0.140008,
2000-04-25, 02:36:00,VALID,915.539,VALID,0,VALID,96.9344,VALID,0,VALID,18.8798,VALID,209,VALID,0,
2000-04-25, 02:37:00,VALID,915.557,VALID,0,VALID,96.9484,VALID,-0.0169808,VALID,18.8614,VALID,208,VALID,0,
2000-04-25, 02:38:00,VALID,915.56,VALID,0,VALID,97.0018,VALID,0,VALID,18.8544,VALID,208,VALID,0,
2000-04-25, 02:39:00,VALID,915.55,VALID,0,VALID,97.1684,VALID,0,VALID,18.8544,VALID,208,VALID,0,
2000-04-25, 02:40:00,VALID,915.539,VALID,0,VALID,97.3134,VALID,0,VALID,18.8477,VALID,208,VALID,0,
2000-04-25, 02:41:00,VALID,915.523,VALID,0,VALID,97.4125,VALID,-0.0169808,VALID,18.8415,VALID,208,VALID,0,
2000-04-25, 02:42:00,VALID,915.493,VALID,0,VALID,97.368,VALID,-0.0169808,VALID,18.8254,VALID,208,VALID,0,
2000-04-25, 02:43:00,VALID,915.487,VALID,0,VALID,97.2104,VALID,0,VALID,18.7868,VALID,209,VALID,0,
2000-04-25, 02:44:00,VALID,915.491,VALID,0,VALID,97.2816,VALID,0,VALID,18.767,VALID,226,VALID,0.317057,
2000-04-25, 02:45:00,VALID,915.499,VALID,0,VALID,97.3833,VALID,0,VALID,18.7476,VALID,226,VALID,0.509046,
2000-04-25, 02:46:00,VALID,915.507,VALID,0,VALID,97.4227,VALID,0,VALID,18.7414,VALID,223,VALID,0.127745,
2000-04-25, 02:47:00,VALID,915.527,VALID,0,VALID,97.5422,VALID,-0.0169808,VALID,18.7414,VALID,219,VALID,0.175092,
2000-04-25, 02:48:00,VALID,915.544,VALID,0,VALID,97.6351,VALID,0,VALID,18.7483,VALID,197,VALID,0,
2000-04-25, 02:49:00,VALID,915.572,VALID,0,VALID,97.6516,VALID,0,VALID,18.7285,VALID,219,VALID,0.341216,
2000-04-25, 02:50:00,VALID,915.584,VALID,0,VALID,97.5283,VALID,0,VALID,18.7188,VALID,215,VALID,0.33861,
2000-04-25, 02:51:00,VALID,915.601,VALID,0,VALID,97.3032,VALID,-0.0169808,VALID,18.6711,VALID,212,VALID,0.228885,
2000-04-25, 02:52:00,VALID,915.624,VALID,0,VALID,97.4418,VALID,0.0509425,VALID,18.651,VALID,202,VALID,0.490625,
2000-04-25, 02:53:00,VALID,915.652,VALID,0,VALID,97.7076,VALID,0.0169808,VALID,18.6507,VALID,186,VALID,0.726162,
2000-04-25, 02:54:00,VALID,915.679,VALID,0,VALID,98.1653,VALID,0,VALID,18.6927,VALID,181,VALID,0.796165,
2000-04-25, 02:55:00,VALID,915.699,VALID,0,VALID,98.7337,VALID,0.0169808,VALID,18.7961,VALID,183,VALID,0.919196,
2000-04-25, 02:56:00,VALID,915.73,VALID,0,VALID,98.8901,VALID,0,VALID,18.9059,VALID,185,VALID,0.970228,
2000-04-25, 02:57:00,VALID,915.756,VALID,0,VALID,98.9652,VALID,0.0169808,VALID,18.9836,VALID,184,VALID,0.884924,
2000-04-25, 02:58:00,VALID,915.765,VALID,0,VALID,98.894,VALID,0.0509425,VALID,19.0418,VALID,183,VALID,0.83491,
2000-04-25, 02:59:00,VALID,915.76,VALID,0,VALID,98.7922,VALID,0.0339617,VALID,19.0383,VALID,189,VALID,1.08919,
2000-04-25, 03:00:00,VALID,915.751,VALID,0,VALID,98.688,VALID,0.0169808,VALID,19.0671,VALID,191,VALID,0.9081,
2000-04-25, 03:01:00,VALID,915.73,VALID,0,VALID,98.5735,VALID,0,VALID,19.0837,VALID,190,VALID,0.995777,
2000-04-25, 03:02:00,VALID,915.705,VALID,0,VALID,98.3662,VALID,0,VALID,19.0706,VALID,194,VALID,0.828814,
2000-04-25, 03:03:00,VALID,915.694,VALID,0,VALID,98.3205,VALID,0.0169808,VALID,19.0771,VALID,197,VALID,1.25925,
2000-04-25, 03:04:00,VALID,915.672,VALID,0,VALID,98.262,VALID,0,VALID,19.0934,VALID,199,VALID,1.1989,
2000-04-25, 03:05:00,VALID,915.657,VALID,0,VALID,98.1717,VALID,0.0169808,VALID,19.0999,VALID,191,VALID,0.724712,
2000-04-25, 03:06:00,VALID,915.647,VALID,0,VALID,98.0051,VALID,0.0169808,VALID,19.0934,VALID,187,VALID,0.902027,
2000-04-25, 03:07:00,VALID,915.655,VALID,0,VALID,98.0725,VALID,-0.0339617,VALID,19.114,VALID,193,VALID,0.876562,
2000-04-25, 03:08:00,VALID,915.651,VALID,0,VALID,98.056,VALID,-0.0509425,VALID,19.114,VALID,190,VALID,0.689303,
2000-04-25, 03:09:00,VALID,915.667,VALID,0,VALID,98.0483,VALID,-0.0679233,VALID,19.1207,VALID,193,VALID,0.833097,
2000-04-25, 03:10:00,VALID,915.673,VALID,0,VALID,97.9886,VALID,-0.0849042,VALID,19.124,VALID,179,VALID,0.752009,
2000-04-25, 03:11:00,VALID,915.683,VALID,0,VALID,97.9657,VALID,-0.101885,VALID,19.1304,VALID,168,VALID,0.877956,
2000-04-25, 03:12:00,VALID,915.677,VALID,0,VALID,97.8856,VALID,-0.0849042,VALID,19.1334,VALID,163,VALID,0.820524,
2000-04-25, 03:13:00,VALID,915.676,VALID,0,VALID,97.8347,VALID,-0.0169808,VALID,19.117,VALID,172,VALID,0.722245,
2000-04-25, 03:14:00,VALID,915.674,VALID,0,VALID,97.7304,VALID,-0.0509425,VALID,19.1108,VALID,165,VALID,0.564019,
2000-04-25, 03:15:00,VALID,915.657,VALID,0,VALID,97.7317,VALID,-0.0679233,VALID,19.0946,VALID,180,VALID,0.481908,
2000-04-25, 03:16:00,VALID,915.654,VALID,0,VALID,97.7508,VALID,-0.101885,VALID,19.0979,VALID,210,VALID,0.679899,
2000-04-25, 03:17:00,VALID,915.643,VALID,0,VALID,97.8055,VALID,-0.0849042,VALID,19.1009,VALID,221,VALID,0.634651,
2000-04-25, 03:18:00,VALID,915.642,VALID,0,VALID,97.8373,VALID,-0.0679233,VALID,19.1143,VALID,222,VALID,0.608964,
2000-04-25, 03:19:00,VALID,915.623,VALID,0,VALID,97.8296,VALID,-0.0679233,VALID,19.1108,VALID,218,VALID,0.9375,
2000-04-25, 03:20:00,VALID,915.601,VALID,0,VALID,97.8665,VALID,-0.0849042,VALID,19.124,VALID,214,VALID,0.923931,
2000-04-25, 03:21:00,VALID,915.598,VALID,0,VALID,97.8093,VALID,-0.0509425,VALID,19.1362,VALID,213,VALID,0.895693,
2000-04-25, 03:22:00,VALID,915.595,VALID,0,VALID,97.8182,VALID,-0.0679233,VALID,19.1625,VALID,212,VALID,0.898214,
2000-04-25, 03:23:00,VALID,915.601,VALID,0,VALID,97.8169,VALID,-0.0509425,VALID,19.1883,VALID,217,VALID,0.836739,
2000-04-25, 03:24:00,VALID,915.609,VALID,0,VALID,97.7393,VALID,-0.0679233,VALID,19.2109,VALID,214,VALID,0.625237,
2000-04-25, 03:25:00,VALID,915.631,VALID,0,VALID,97.6516,VALID,-0.0679233,VALID,19.2373,VALID,215,VALID,0.524777,
2000-04-25, 03:26:00,VALID,915.647,VALID,0,VALID,97.4545,VALID,-0.0849042,VALID,19.2201,VALID,210,VALID,0.181799,
2000-04-25, 03:27:00,VALID,915.653,VALID,0,VALID,97.148,VALID,-0.0679233,VALID,19.2174,VALID,186,VALID,0.0954392,
2000-04-25, 03:28:00,VALID,915.654,VALID,0,VALID,97.4316,VALID,-0.0679233,VALID,19.2363,VALID,190,VALID,0.884663,
2000-04-25, 03:29:00,VALID,915.658,VALID,0,VALID,97.4367,VALID,-0.0849042,VALID,19.2624,VALID,187,VALID,0.909505,
2000-04-25, 03:30:00,VALID,915.66,VALID,0,VALID,97.3413,VALID,-0.101885,VALID,19.2785,VALID,185,VALID,0.884457,
2000-04-25, 03:31:00,VALID,915.668,VALID,0,VALID,97.2421,VALID,-0.101885,VALID,19.3046,VALID,184,VALID,0.802576,
2000-04-25, 03:32:00,VALID,915.673,VALID,0,VALID,97.265,VALID,-0.0509425,VALID,19.3103,VALID,188,VALID,0.894072,
2000-04-25, 03:33:00,VALID,915.67,VALID,0,VALID,97.1226,VALID,-0.0849042,VALID,19.3334,VALID,191,VALID,0.888775,
2000-04-25, 03:34:00,VALID,915.692,VALID,0,VALID,96.9001,VALID,-0.0679233,VALID,19.3496,VALID,191,VALID,0.714738,
2000-04-25, 03:35:00,VALID,915.695,VALID,0,VALID,96.7577,VALID,-0.0339617,VALID,19.3565,VALID,187,VALID,0.801809,